Zurück zum Katalog

STARLINK-36871

AktivKommunikationSSO
NORAD 68023·PAYLOAD·🇺🇸 United States

Gestartet Mar 1, 2026 von Vandenberg Space Force Base

Loading…

Nächste Überflüge (nächste 24 Stunden)

TLE

AktuellSource: CelesTrak SupGP

Epoche: Sep 14, 2026, 16:02 UTC

1 68023C 26040J   26257.66854167  .00002063  00000+0  64049-4 0  2570
2 68023  97.2855 205.0553 0001857  90.0635 206.7262 15.33439158    19

Verfolge STARLINK-36871 in Echtzeit mit AllMySat

Download on the App Store